DW2849 Weather Reports


Display with metric or nautical units.
time (UTC)temp
F
wind
direction
speed
MPH
gust
MPH
rain 1hr
in
rain 24hr
in
rain mn
in
humidity
%
barometer
mb
20260831200715 67 233 3.0 4.0 0.00 0.00 0.00 65 1013.0
20260831195614 66 235 2.0 6.0 0.00 0.00 0.00 68 1013.0
20260831194513 64 214 3.0 4.0 0.00 0.00 0.00 69 1013.0
20260831193414 63 206 3.0 5.0 0.00 0.00 0.00 70 1013.1
20260831192314 63 172 3.0 4.0 0.00 0.00 0.00 70 1013.3
20260831191213 62 174 3.0 6.0 0.00 0.00 0.00 71 1013.2
20260831185731 60 158 2.0 3.0 0.00 0.00 0.00 72 1013.3
20260831184631 59 166 2.0 3.0 0.00 0.00 0.00 75 1013.3
20260831183531 58 161 2.0 2.0 0.00 0.00 0.00 77 1013.4
20260831182431 56 26 1.0 2.0 0.00 0.00 0.00 78 1013.4
20260831181331 55 84 1.0 3.0 0.00 0.00 0.00 80 1013.4
20260831180040 54 219 1.0 3.0 0.00 0.00 0.00 80 1013.4
20260831174940 54 206 1.0 2.0 0.00 0.00 0.00 81 1013.3
20260831173840 53 86 1.0 2.0 0.00 0.00 0.00 82 1013.3
20260831172740 53 124 1.0 2.0 0.00 0.00 0.00 82 1013.1
20260831171640 53 28 1.0 2.0 0.00 0.00 0.00 82 1013.0
20260831170540 53 347 0.0 2.0 0.00 0.00 0.00 82 1013.0
20260831165439 53 98 1.0 2.0 0.00 0.00 0.00 82 1012.8
20260831164339 52 0 1.0 2.0 0.00 0.00 0.00 82 1012.7
20260831163240 52 352 1.0 2.0 0.00 0.00 0.00 83 1012.7
20260831162139 52 320 0.0 2.0 0.00 0.00 0.00 83 1012.7
20260831160848 51 215 1.0 2.0 0.00 0.00 0.00 83 1012.8
20260831155748 51 19 1.0 2.0 0.00 0.00 0.00 83 1012.7
20260831154457 51 45 1.0 2.0 0.00 0.00 0.00 83 1012.5
20260831153357 51 151 0.0 2.0 0.00 0.00 0.00 83 1012.5
20260831152257 51 315 0.0 2.0 0.00 0.00 0.00 83 1012.4
20260831151157 51 315 1.0 2.0 0.00 0.00 0.00 83 1012.3
20260831150057 51 0 0.0 2.0 0.00 0.00 0.00 83 1012.2
20260831144806 51 354 0.0 1.0 0.00 0.00 0.00 83 1012.1
20260831143706 51 0 0.0 2.0 0.00 0.00 0.00 83 1012.0
20260831142607 51 315 0.0 2.0 0.00 0.00 0.00 83 1011.8
20260831141506 51 19 0.0 2.0 0.00 0.00 0.00 83 1011.7
20260831140406 51 37 1.0 2.0 0.00 0.00 0.00 83 1011.6
20260831135306 51 42 1.0 3.0 0.00 0.00 0.00 83 1011.3
20260831134206 51 45 2.0 3.0 0.00 0.00 0.00 83 1011.2
20260831133106 51 42 3.0 3.0 0.00 0.00 0.00 83 1011.0
20260831131622 51 45 2.0 3.0 0.00 0.00 0.00 83 1011.0
20260831130522 51 45 1.0 2.0 0.00 0.00 0.00 83 1011.0
20260831125422 51 45 1.0 3.0 0.00 0.00 0.00 83 1011.1
20260831124322 51 82 2.0 2.0 0.00 0.00 0.00 83 1011.0
20260831123222 51 45 1.0 2.0 0.00 0.00 0.00 83 1011.1
20260831122122 51 77 1.0 2.0 0.00 0.00 0.00 83 1011.1
20260831121022 51 96 0.0 2.0 0.00 0.00 0.00 83 1011.1
20260831115922 51 6 0.0 1.0 0.00 0.00 0.00 83 1011.1
20260831114822 51 68 1.0 2.0 0.00 0.00 0.00 83 1011.3
20260831113722 51 45 0.0 1.0 0.00 0.00 0.00 83 1011.2
20260831112238 51 45 0.0 2.0 0.00 0.00 0.00 83 1011.2
20260831111138 51 225 1.0 2.0 0.00 0.00 0.00 83 1011.2
20260831110038 51 210 0.0 2.0 0.00 0.00 0.00 83 1011.2
20260831104938 51 180 0.0 0.0 0.00 0.00 0.00 82 1011.1
20260831103840 51 90 1.0 2.0 0.00 0.00 0.00 83 1011.0
20260831102738 51 225 0.0 2.0 0.00 0.00 0.00 83 1011.1
20260831101447 51 206 1.0 2.0 0.00 0.00 0.00 83 1011.0
20260831100347 51 90 0.0 0.0 0.00 0.00 0.00 83 1010.8
20260831095247 51 45 0.0 1.0 0.00 0.00 0.00 83 1010.7
20260831094147 51 45 1.0 1.0 0.00 0.00 0.00 83 1010.7
20260831093047 51 45 0.0 1.0 0.00 0.00 0.00 82 1010.7
20260831091947 51 90 1.0 2.0 0.00 0.00 0.00 82 1010.7
20260831090847 51 45 2.0 2.0 0.00 0.00 0.00 82 1010.6
20260831085556 51 45 2.0 2.0 0.00 0.00 0.00 82 1010.8
20260831084456 51 45 2.0 2.0 0.00 0.00 0.00 82 1010.8
20260831083356 51 45 2.0 2.0 0.00 0.00 0.00 82 1010.9
20260831082256 51 45 1.0 2.0 0.00 0.00 0.00 82 1010.9
20260831081156 51 45 0.0 1.0 0.00 0.00 0.00 82 1011.0
20260831075904 50 45 0.0 0.0 0.00 0.00 0.00 82 1011.0
20260831074805 51 45 1.0 2.0 0.00 0.00 0.00 82 1011.0
20260831073704 51 45 2.0 3.0 0.00 0.00 0.00 81 1011.0
20260831072604 51 45 2.0 3.0 0.00 0.00 0.00 81 1011.0
20260831071313 51 90 1.0 2.0 0.00 0.00 0.00 80 1011.1
20260831070213 52 45 1.0 2.0 0.00 0.00 0.00 79 1011.0
20260831065113 53 45 2.0 3.0 0.00 0.00 0.00 78 1010.9
20260831064013 54 45 2.0 3.0 0.00 0.00 0.00 77 1010.9
20260831062913 55 45 2.0 3.0 0.00 0.00 0.00 77 1011.0
20260831061813 56 45 2.0 3.0 0.00 0.00 0.00 76 1010.9
20260831060522 58 45 2.0 3.0 0.00 0.00 0.00 72 1011.0
20260831055422 59 45 2.0 3.0 0.00 0.00 0.00 71 1010.9
20260831054130 58 22 3.0 3.0 0.00 0.00 0.00 71 1010.9
20260831053030 56 6 3.0 3.0 0.00 0.00 0.00 74 1010.9
20260831051930 56 22 2.0 2.0 0.00 0.00 0.00 74 1010.9
20260831050831 57 22 2.0 2.0 0.00 0.00 0.00 74 1011.0
20260831045731 57 0 0.0 0.0 0.00 0.00 0.00 74 1011.0
20260831044631 58 112 0.0 0.0 0.00 0.00 0.00 73 1011.0
20260831043531 59 112 0.0 0.0 0.00 0.00 0.00 72 1011.0
20260831042431 61 202 0.0 1.0 0.00 0.00 0.00 70 1010.9
20260831041330 64 245 1.0 2.0 0.00 0.00 0.00 60 1010.7
20260831040230 63 270 2.0 3.0 0.00 0.00 0.00 61 1010.6
20260831034939 62 259 1.0 2.0 0.00 0.00 0.00 69 1010.7
20260831033839 62 222 1.0 3.0 0.00 0.00 0.00 64 1010.7
20260831032739 62 264 1.0 2.0 0.00 0.00 0.00 68 1010.7
20260831031448 64 194 1.0 3.0 0.00 0.00 0.00 67 1010.7
20260831030348 65 257 1.0 2.0 0.00 0.00 0.00 60 1010.7
20260831025248 63 270 1.0 3.0 0.00 0.00 0.00 65 1010.6
20260831024148 63 270 1.0 2.0 0.00 0.00 0.00 68 1010.7
20260831023048 64 253 0.0 2.0 0.00 0.00 0.00 68 1010.8
20260831021948 64 217 1.0 2.0 0.00 0.00 0.00 68 1010.9
20260831020848 66 231 1.0 2.0 0.00 0.00 0.00 66 1010.9
20260831015556 66 260 2.0 4.0 0.00 0.00 0.00 65 1011.0
20260831014456 66 222 2.0 6.0 0.00 0.00 0.00 66 1011.1
20260831013205 68 200 2.0 5.0 0.00 0.00 0.00 64 1011.1
20260831012105 69 240 2.0 5.0 0.00 0.00 0.00 62 1011.3
20260831011005 70 262 3.0 6.0 0.00 0.00 0.00 60 1011.3